Cloud_Cover
0 58 100 100 100 91 19 55 10 9 4 22 52 94 89 99 57 100 99 64 100 99 84 28 34 100 100 100 97 100 100 98 100 100 100 100 100 100 100 100 100 100 100
1 91 79 100 69 26 11 100 3 5 2 61 77 100 99 100 100 100 88 100 97 82 50 6 100 100 100 100 100 100 100 100 100 100 100 100 100 100 100 100 100 100 100
4 90 99 96 83 8 51 100 4 5 16 81 99 66 100 100 100 100 100 91 100 58 90 100 100 100 100 100 100 100 100 100 100 100 100 100 100 100 100 100 100 100 100
1 66 66 92 100 6 98 64 21 1 10 100 93 95 100 99 100 100 100 95 100 100 100 100 100 100 100 100 100 100 100 100 100 100 100 100 100 100 100 100 100 100 100
0 26 47 36 45 55 64 91 83 30 100 100 100 100 95 100 100 95 100 100 100 100 100 100 100 100 100 100 100 100 100 100 100 100 100 100 100 100 100 100 100 100 100
0 0 11 1 0 26 99 100 100 100 100 100 100 100 92 100 100 100 100 100 100 100 100 100 100 100 100 100 100 100 100 100 100 100 100 100 100 100 100 100 100 100 100
0 0 0 1 8 7 96 100 99 100 100 100 87 94 86 100 100 100 100 100 100 100 100 100 100 100 100 100 100 100 100 100 100 100 100 100 100 100 100 100 100 100 100
5 4 0 26 76 100 100 100 57 88 99 18 71 16 48 31 100 100 100 100 100 100 100 100 100 100 100 100 100 100 100 100 100 100 100 100 100 100 100 100 100 100 100
1 24 2 56 84 98 100 44 36 55 94 93 68 84 54 5 100 100 100 100 97 100 100 100 85 100 100 100 100 100 100 100 100 100 100 100 100 100 100 100 100 100 98
0 2 4 49 40 19 5 19 33 8 28 92 90 64 18 8 100 100 92 100 100 96 100 100 100 100 100 100 100 100 100 100 100 100 100 100 100 81 98 100 100 100 98
0 4 7 7 4 33 34 71 6 53 63 96 27 84 90 27 92 100 100 89 69 100 100 96 100 100 100 100 100 100 100 100 100 100 100 100 100 100 100 100 100 100 100
0 0 5 2 9 6 5 11 6 41 20 72 88 62 47 39 97 100 100 90 100 100 100 11 62 66 100 99 83 79 74 100 100 100 100 100 100 100 100 98 38 100 87
0 0 0 1 0 0 0 4 5 5 82 63 98 73 49 98 99 100 100 100 35 92 100 100 98 57 98 100 100 99 100 100 100 100 100 34 52 59 95 5 2 4 7
0 0 0 0 0 0 0 0 0 1 17 80 94 100 90 96 23 93 100 11 100 100 98 96 64 35 89 95 100 100 100 100 97 97 94 70 5 5 5 5 5 5 5
0 0 0 0 0 0 0 0 0 0 0 3 4 3 52 60 22 33 7 70 100 100 100 100 100 100 30 99 100 18 10 18 90 77 6 22 88 100 62 19 48 100 88
0 0 0 0 0 0 0 0 61 0 0 0 0 0 9 6 0 35 99 88 15 33 75 100 99 54 5 3 8 8 54 54 85 100 100 92 69 27 31 21 2 0 4
0 0 0 0 0 0 0 0 0 33 3 0 0 0 0 0 0 0 1 2 2 54 12 12 20 29 26 6 5 6 5 5 4 1 5 5 0 0 5 5 5 5 5
0 4 0 0 0 0 0 0 0 0 0 0 40 0 4 0 0 0 0 18 8 27 4 5 4 4 4 2 2 0 0 0 0 0 3 5 7 5 5 6 66 61 35
5 5 5 5 3 0 0 0 0 0 0 0 0 33 18 2 0 1 11 0 0 0 0 0 0 0 0 0 0 0 0 3 4 2 5 6 14 5 5 5 5 31 99
5 5 5 5 5 1 0 0 0 0 0 0 0 0 0 0 0 0 0 0 0 0 0 0 0 0 0 0 0 0 0 0 5 14 10 5 5 5 5 5 5 5 53
5 5 5 5 5 3 0 0 0 0 0 0 0 0 0 0 0 0 0 0 0 0 0 0 0 0 0 0 0 5 2 5 5 5 5 5 79 95 24 7 31 5 99
5 5 5 5 5 3 5 0 0 0 0 0 0 1 0 0 0 0 0 0 0 0 0 0 0 0 0 4 5 5 1 5 5 31 91 52 73 100 60 93 48 27 12
5 5 5 5 5 5 5 5 4 5 5 4 3 5 5 18 10 7 5 1 0 0 0 0 0 0 0 3 5 43 58 21 52 91 97 27 46 39 24 15 6 32 87
0 5 5 5 5 5 5 5 5 5 5 5 5 10 5 22 42 77 76 79 7 4 5 5 5 4 5 2 5 5 12 71 36 80 66 98 100 49 5 5 7 68 87
5 5 5 9 98 53 19 40 15 5 5 13 58 69 11 6 25 86 38 10 5 5 5 17 15 5 6 8 5 5 12 39 18 7 28 33 25 5 5 5 22 95 96
5 5 5 5 5 20 27 44 5 5 5 13 23 56 36 36 16 5 5 29 64 54 100 98 54 96 74 72 5 5 8 38 76 62 10 5 5 9 15 56 47 100 100